Retour au catalogue

STARLINK-2415

ActifCommunicationsVLEO
NORAD 47828·PAYLOAD·🇺🇸 United States

Lancé Mar 11, 2021 depuis Cape Canaveral Space Force Station

Loading…

Prochains Passages (prochaines 24 heures)

TLE

FraisSource: CelesTrak SupGP

Époque: Sep 15, 2026, 02:41 UTC

1 47828C 21018AT  26258.11229167 -.00008452  00000+0 -27158-3 0  2587
2 47828  53.1579  93.7707 0001517  73.6224 179.0143 15.31728689    18

Suivez STARLINK-2415 en temps réel avec AllMySat

Download on the App Store